EW9698 Weather Reports


time (UTC)temp
C
wind
direction
speed
KPH
gust
KPH
rain 1hr
cm
rain 24hr
cm
rain mn
cm
humidity
%
barometer
mb
20260507192015 16 277 14.5 27.4 0.00 0.00 0.00 41 1011.0
20260507191516 16 293 16.1 24.1 0.00 0.00 0.00 41 1011.0
20260507191021 16 273 12.9 30.6 0.00 0.00 0.00 41 1011.0
20260507190515 16 287 14.5 30.6 0.00 0.00 0.00 39 1011.1
20260507190019 16 313 14.5 30.6 0.00 0.00 0.00 38 1011.0
20260507185518 16 285 14.5 30.6 0.00 0.00 0.00 38 1011.0
20260507185014 17 275 14.5 29.0 0.00 0.00 0.00 37 1010.9
20260507184517 17 281 14.5 24.1 0.00 0.00 0.00 37 1011.0
20260507184015 17 298 14.5 27.4 0.00 0.00 0.00 36 1011.0
20260507183513 17 315 14.5 30.6 0.00 0.00 0.00 36 1010.9
20260507183015 17 299 19.3 30.6 0.00 0.00 0.00 37 1011.0
20260507182513 17 321 16.1 29.0 0.00 0.00 0.00 38 1011.1
20260507182013 17 327 12.9 22.5 0.00 0.00 0.00 38 1011.0
20260507181512 17 349 11.3 30.6 0.00 0.00 0.00 37 1011.1
20260507181012 17 299 17.7 30.6 0.00 0.00 0.00 37 1011.1
20260507180512 17 301 9.7 27.4 0.00 0.00 0.00 35 1011.1
20260507180018 17 345 14.5 27.4 0.00 0.00 0.00 35 1011.2
20260507175512 16 317 12.9 30.6 0.00 0.00 0.00 35 1011.2
20260507175011 17 9 16.1 30.6 0.00 0.00 0.00 34 1011.2
20260507174513 17 292 8.0 24.1 0.00 0.00 0.00 36 1011.1
20260507174011 17 317 9.7 25.7 0.00 0.00 0.00 35 1011.2
20260507173517 17 322 14.5 22.5 0.00 0.00 0.00 35 1011.2
20260507173026 17 292 8.0 32.2 0.00 0.00 0.00 35 1011.3
20260507172510 17 336 16.1 32.2 0.00 0.00 0.00 34 1011.3
20260507172009 17 315 11.3 25.7 0.00 0.00 0.00 33 1011.2
20260507171508 17 17 17.7 25.7 0.00 0.00 0.00 34 1011.3
20260507171007 17 339 11.3 27.4 0.00 0.00 0.00 34 1011.3
20260507170507 17 360 11.3 24.1 0.00 0.00 0.00 35 1011.3
20260507170011 16 339 11.3 24.1 0.00 0.00 0.00 35 1011.4
20260507165505 16 327 12.9 24.1 0.00 0.00 0.00 33 1011.4
20260507165005 15 334 8.0 22.5 0.00 0.00 0.00 35 1011.4
20260507164512 15 312 11.3 22.5 0.00 0.00 0.00 35 1011.5
20260507164006 16 327 12.9 22.5 0.00 0.00 0.00 33 1011.5
20260507163505 16 340 8.0 20.9 0.00 0.00 0.00 33 1011.5
20260507163005 16 347 8.0 22.5 0.00 0.00 0.00 33 1011.5
20260507162504 16 348 6.4 27.4 0.00 0.00 0.00 35 1011.6
20260507162003 16 343 12.9 27.4 0.00 0.00 0.00 33 1011.5
20260507161503 16 344 11.3 27.4 0.00 0.00 0.00 34 1011.5
20260507161001 16 319 12.9 24.1 0.00 0.00 0.00 33 1011.5
20260507160500 16 320 12.9 24.1 0.00 0.00 0.00 35 1011.6
20260507160105 16 324 14.5 24.1 0.00 0.00 0.00 35 1011.6
20260507155558 15 13 14.5 24.1 0.00 0.00 0.00 35 1011.7
20260507155058 15 338 9.7 24.1 0.00 0.00 0.00 35 1011.7
20260507154600 15 329 9.7 29.0 0.00 0.00 0.00 36 1011.7
20260507154057 15 360 14.5 33.8 0.00 0.00 0.00 35 1011.7
20260507153557 15 312 14.5 33.8 0.00 0.00 0.00 35 1011.7
20260507153058 15 315 16.1 32.2 0.00 0.00 0.00 35 1011.7
20260507152557 15 311 16.1 32.2 0.00 0.00 0.00 34 1011.6
20260507152054 15 294 12.9 29.0 0.00 0.00 0.00 35 1011.5
20260507151554 15 294 16.1 25.7 0.00 0.00 0.00 35 1011.5
20260507151053 15 338 9.7 25.7 0.00 0.00 0.00 36 1011.5
20260507150553 15 329 11.3 27.4 0.00 0.00 0.00 35 1011.6
20260507150053 15 320 12.9 27.4 0.00 0.00 0.00 35 1011.6
20260507145552 14 323 16.1 29.0 0.00 0.00 0.00 33 1011.7
20260507145050 14 14 11.3 29.0 0.00 0.00 0.00 34 1011.7
20260507144549 14 315 12.9 27.4 0.00 0.00 0.00 34 1011.8
20260507144123 14 329 16.1 27.4 0.00 0.00 0.00 35 1011.7
20260507143648 13 328 12.9 25.7 0.00 0.00 0.00 36 1011.5
20260507143047 13 305 12.9 25.7 0.00 0.00 0.00 37 1011.4
20260507142545 13 325 12.9 32.2 0.00 0.00 0.00 38 1011.3
20260507142042 13 333 8.0 32.2 0.00 0.00 0.00 38 1011.4
20260507141543 13 342 16.1 30.6 0.00 0.00 0.00 38 1011.2
20260507141041 13 320 19.3 37.0 0.00 0.00 0.00 39 1011.2
20260507140540 12 307 20.9 37.0 0.00 0.00 0.00 40 1011.2
20260507140043 12 296 19.3 33.8 0.00 0.00 0.00 40 1011.2
20260507135537 12 336 16.1 32.2 0.00 0.00 0.00 42 1011.2
20260507135036 11 298 17.7 30.6 0.00 0.00 0.00 43 1011.1
20260507134536 11 306 12.9 30.6 0.00 0.00 0.00 43 1011.2
20260507134033 11 342 19.3 30.6 0.00 0.00 0.00 43 1011.1
20260507133533 11 284 12.9 33.8 0.00 0.00 0.00 44 1011.0
20260507133031 11 310 19.3 33.8 0.00 0.00 0.00 45 1011.0
20260507132533 10 284 22.5 35.4 0.00 0.00 0.00 46 1010.9
20260507132027 10 289 22.5 33.8 0.00 0.00 0.00 47 1010.9
20260507131526 10 292 19.3 33.8 0.00 0.00 0.00 49 1010.8
20260507131025 9 297 19.3 32.2 0.00 0.00 0.00 50 1010.7
20260507130524 8 293 20.9 32.2 0.00 0.00 0.00 52 1010.7
20260507130022 8 286 16.1 25.7 0.00 0.00 0.00 53 1010.7
20260507125523 7 306 16.1 24.1 0.00 0.00 0.00 53 1010.8
20260507125019 7 315 16.1 27.4 0.00 0.00 0.00 53 1010.7
20260507124521 7 292 19.3 27.4 0.00 0.00 0.00 54 1010.7
20260507124020 6 299 17.7 29.0 0.00 0.00 0.00 56 1010.6
20260507123514 6 299 17.7 29.0 0.00 0.00 0.00 58 1010.6
20260507123014 5 286 17.7 25.7 0.00 0.00 0.00 59 1010.5
20260507122511 4 296 16.1 25.7 0.00 0.00 0.00 60 1010.4
20260507122010 4 264 14.5 24.1 0.00 0.00 0.00 60 1010.4
20260507121513 4 288 14.5 22.5 0.00 0.00 0.00 59 1010.4
20260507121010 4 273 14.5 25.7 0.00 0.00 0.00 59 1010.3
20260507120511 3 286 14.5 25.7 0.00 0.00 0.00 59 1010.4
20260507120009 3 261 12.9 22.5 0.00 0.00 0.00 59 1010.4
20260507115509 3 283 9.7 22.5 0.00 0.00 0.00 59 1010.4
20260507115008 3 274 14.5 22.5 0.00 0.00 0.00 59 1010.4
20260507114509 3 288 14.5 20.9 0.00 0.00 0.00 59 1010.3
20260507114011 2 277 14.5 24.1 0.00 0.00 0.00 60 1010.4
20260507113508 2 288 14.5 24.1 0.00 0.00 0.00 58 1010.3
20260507113027 2 262 11.3 17.7 0.00 0.00 0.00 57 1010.2
20260507112507 2 267 11.3 17.7 0.00 0.00 0.00 56 1010.2
20260507112007 3 266 11.3 17.7 0.00 0.00 0.00 55 1010.1
20260507111506 3 285 11.3 24.1 0.00 0.00 0.00 54 1010.2
20260507111005 3 262 16.1 24.1 0.00 0.00 0.00 54 1010.1
20260507110505 3 275 14.5 25.7 0.00 0.00 0.00 54 1010.2
20260507110010 3 308 12.9 25.7 0.00 0.00 0.00 53 1010.2
20260507105505 2 256 16.1 24.1 0.00 0.00 0.00 54 1010.3
20260507105005 3 284 11.3 19.3 0.00 0.00 0.00 54 1010.3
20260507104505 3 265 11.3 25.7 0.00 0.00 0.00 54 1010.3
20260507104007 3 251 17.7 25.7 0.00 0.00 0.00 55 1010.3
20260507103506 3 290 9.7 14.5 0.00 0.00 0.00 55 1010.3
20260507103004 3 278 9.7 14.5 0.00 0.00 0.00 54 1010.4
20260507102504 3 277 8.0 16.1 0.00 0.00 0.00 54 1010.3
20260507102006 3 289 9.7 16.1 0.00 0.00 0.00 53 1010.3
20260507101512 3 300 4.8 20.9 0.00 0.00 0.00 51 1010.3
20260507101005 4 286 9.7 27.4 0.00 0.00 0.00 50 1010.2
20260507100502 4 259 17.7 27.4 0.00 0.00 0.00 50 1010.1
20260507100003 4 290 17.7 27.4 0.00 0.00 0.00 50 1010.2
20260507095601 3 269 14.5 24.1 0.00 0.00 0.00 49 1010.2
20260507095100 3 289 9.7 19.3 0.00 0.00 0.00 49 1010.2
20260507094607 3 280 12.9 22.5 0.00 0.00 0.00 50 1010.3
20260507094057 2 267 14.5 22.5 0.00 0.00 0.00 52 1010.3
20260507093659 1 255 11.3 19.3 0.00 0.00 0.00 52 1010.3
20260507093057 1 307 4.8 8.0 0.00 0.00 0.00 49 1010.5
20260507092557 1 306 3.2 14.5 0.00 0.00 0.00 48 1010.3
20260507092056 1 285 4.8 16.1 0.00 0.00 0.00 47 1010.4
20260507091625 1 315 9.7 17.7 0.00 0.00 0.00 47 1010.5
20260507091057 2 310 6.4 12.9 0.00 0.00 0.00 46 1010.5
20260507090555 2 298 3.2 17.7 0.00 0.00 0.00 45 1010.4
20260507090056 2 290 11.3 22.5 0.00 0.00 0.00 44 1010.4
20260507085554 2 275 16.1 24.1 0.00 0.00 0.00 43 1010.3
20260507085054 2 258 17.7 25.7 0.00 0.00 0.00 43 1010.2
20260507084604 2 270 17.7 25.7 0.00 0.00 0.00 43 1010.2
20260507084053 2 273 17.7 25.7 0.00 0.00 0.00 43 1010.1
20260507083555 2 258 19.3 27.4 0.00 0.00 0.00 43 1010.1
20260507083051 2 261 17.7 27.4 0.00 0.00 0.00 44 1010.1
20260507082548 2 255 17.7 24.1 0.00 0.00 0.00 44 1010.0
20260507082047 2 254 14.5 25.7 0.00 0.00 0.00 45 1010.1
20260507081556 2 243 16.1 25.7 0.00 0.00 0.00 45 1010.2
20260507081048 1 234 16.1 24.1 0.00 0.00 0.00 45 1010.3
20260507080546 1 262 16.1 24.1 0.00 0.00 0.00 46 1010.4
20260507080046 1 271 16.1 24.1 0.00 0.00 0.00 46 1010.4
20260507075545 1 237 14.5 24.1 0.00 0.00 0.00 45 1010.4
20260507075045 1 256 16.1 22.5 0.00 0.00 0.00 45 1010.5
20260507074645 1 255 14.5 22.5 0.00 0.00 0.00 45 1010.6
20260507074050 2 258 16.1 22.5 0.00 0.00 0.00 44 1010.6
20260507073543 1 263 14.5 22.5 0.00 0.00 0.00 45 1010.6
20260507073042 1 273 14.5 22.5 0.00 0.00 0.00 45 1010.7
20260507072540 1 267 12.9 24.1 0.00 0.00 0.00 46 1010.8
20260507072042 1 250 16.1 22.5 0.00 0.00 0.00 46 1010.7
20260507071539 1 257 16.1 25.7 0.00 0.00 0.00 46 1010.9
20260507071040 1 254 14.5 25.7 0.00 0.00 0.00 47 1010.8
20260507070539 1 284 14.5 24.1 0.00 0.00 0.00 47 1010.8
20260507070037 1 253 17.7 25.7 0.00 0.00 0.00 49 1010.8
20260507065537 0 263 14.5 25.7 0.00 0.00 0.00 51 1010.9
20260507065034 0 262 9.7 16.1 0.00 0.00 0.00 52 1010.6
20260507064536 0 250 8.0 11.3 0.00 0.00 0.00 55 1010.7
20260507064033 0 267 6.4 11.3 0.00 0.00 0.00 54 1010.8
20260507063531 0 280 3.2 6.4 0.00 0.00 0.00 53 1010.8
20260507063032 0 264 0.0 6.4 0.00 0.00 0.00 52 1011.0
20260507062530 0 279 3.2 6.4 0.00 0.00 0.00 53 1011.0
20260507062028 0 273 3.2 9.7 0.00 0.00 0.00 52 1011.0
20260507061528 0 285 4.8 12.9 0.00 0.00 0.00 52 1011.2
20260507061026 0 286 6.4 16.1 0.00 0.00 0.00 52 1011.3
20260507060525 0 268 6.4 16.1 0.00 0.00 0.00 52 1011.4
20260507060029 0 271 9.7 16.1 0.00 0.00 0.00 51 1011.4
20260507055524 0 281 6.4 14.5 0.00 0.00 0.00 50 1011.4
20260507055023 1 275 8.0 20.9 0.00 0.00 0.00 48 1011.5
20260507054523 1 244 14.5 24.1 0.00 0.00 0.00 48 1011.5
20260507054023 1 275 17.7 24.1 0.00 0.00 0.00 49 1011.5
20260507053523 1 238 14.5 22.5 0.00 0.00 0.00 50 1011.5
20260507053022 1 257 16.1 24.1 0.00 0.00 0.00 50 1011.5
20260507052521 1 261 16.1 24.1 0.00 0.00 0.00 49 1011.5
20260507052021 1 284 16.1 20.9 0.00 0.00 0.00 49 1011.6
20260507051520 1 261 16.1 20.9 0.00 0.00 0.00 49 1011.7
20260507051024 1 268 16.1 20.9 0.00 0.00 0.00 49 1011.7
20260507050521 1 256 14.5 20.9 0.00 0.00 0.00 49 1011.7
20260507050026 1 281 14.5 19.3 0.00 0.00 0.00 48 1011.8
20260507045522 2 251 14.5 17.7 0.00 0.00 0.00 48 1011.9
20260507045019 2 253 11.3 14.5 0.00 0.00 0.00 48 1011.9
20260507044519 2 265 9.7 14.5 0.00 0.00 0.00 47 1012.0
20260507044018 2 258 11.3 14.5 0.00 0.00 0.00 47 1012.0
20260507043519 2 270 8.0 16.1 0.00 0.00 0.00 46 1012.1
20260507043024 2 259 11.3 16.1 0.00 0.00 0.00 46 1012.1
20260507042521 2 232 9.7 16.1 0.00 0.00 0.00 45 1012.0
20260507042018 2 254 11.3 16.1 0.00 0.00 0.00 45 1012.1
20260507041518 2 262 9.7 16.1 0.00 0.00 0.00 45 1012.2
20260507041018 3 257 9.7 14.5 0.00 0.00 0.00 45 1012.1
20260507040518 2 265 9.7 14.5 0.00 0.00 0.00 46 1012.2
20260507040017 2 270 9.7 14.5 0.00 0.00 0.00 46 1012.2
20260507035517 2 272 9.7 14.5 0.00 0.00 0.00 45 1012.2
20260507035017 2 273 11.3 14.5 0.00 0.00 0.00 45 1012.2
20260507034522 3 261 9.7 14.5 0.00 0.00 0.00 43 1012.2
20260507034016 3 288 8.0 14.5 0.00 0.00 0.00 42 1012.2
20260507033516 3 256 9.7 14.5 0.00 0.00 0.00 42 1012.1
20260507033017 4 264 6.4 14.5 0.00 0.00 0.00 41 1012.2
20260507032520 5 286 9.7 16.1 0.00 0.00 0.00 41 1012.1
20260507032015 5 257 12.9 17.7 0.00 0.00 0.00 40 1012.1
20260507031518 5 273 11.3 17.7 0.00 0.00 0.00 39 1012.1
20260507031016 5 254 12.9 17.7 0.00 0.00 0.00 40 1012.1
20260507030519 5 250 8.0 14.5 0.00 0.00 0.00 39 1012.1
20260507030016 5 254 6.4 14.5 0.00 0.00 0.00 39 1012.1
20260507025514 5 260 8.0 14.5 0.00 0.00 0.00 38 1012.1
20260507025015 5 239 6.4 16.1 0.00 0.00 0.00 37 1012.0
20260507024519 6 260 9.7 16.1 0.00 0.00 0.00 37 1012.0
20260507024014 5 250 9.7 16.1 0.00 0.00 0.00 37 1012.0
20260507023514 6 252 8.0 16.1 0.00 0.00 0.00 37 1011.9
20260507023014 6 245 6.4 12.9 0.00 0.00 0.00 36 1012.0
20260507022516 6 250 6.4 12.9 0.00 0.00 0.00 36 1011.9
20260507022015 6 244 6.4 12.9 0.00 0.00 0.00 35 1011.9
20260507021513 7 259 6.4 12.9 0.00 0.00 0.00 34 1012.0
20260507021015 7 246 4.8 16.1 0.00 0.00 0.00 33 1012.1
20260507020513 7 266 9.7 16.1 0.00 0.00 0.00 32 1012.0
20260507020018 8 258 6.4 14.5 0.00 0.00 0.00 32 1012.1
20260507015512 8 242 8.0 16.1 0.00 0.00 0.00 32 1012.0
20260507015012 8 246 8.0 16.1 0.00 0.00 0.00 31 1012.0
20260507014512 8 254 9.7 20.9 0.00 0.00 0.00 31 1012.0
20260507014012 9 262 11.3 22.5 0.00 0.00 0.00 30 1012.1
20260507013510 9 287 16.1 24.1 0.00 0.00 0.00 30 1012.1
20260507013013 9 263 11.3 24.1 0.00 0.00 0.00 31 1012.2
20260507012510 9 266 14.5 25.7 0.00 0.00 0.00 30 1012.2
20260507012009 9 256 14.5 25.7 0.00 0.00 0.00 30 1012.2
20260507011512 9 294 12.9 25.7 0.00 0.00 0.00 29 1012.3
20260507011008 10 259 17.7 25.7 0.00 0.00 0.00 28 1012.3
20260507010508 10 252 14.5 29.0 0.00 0.00 0.00 28 1012.4
20260507010008 10 258 19.3 33.8 0.00 0.00 0.00 27 1012.3
20260507005507 10 272 22.5 33.8 0.00 0.00 0.00 27 1012.4
20260507005006 10 278 19.3 32.2 0.00 0.00 0.00 27 1012.5
20260507004509 10 267 17.7 32.2 0.00 0.00 0.00 27 1012.5
20260507004007 10 253 16.1 30.6 0.00 0.00 0.00 26 1012.5
20260507003508 10 269 17.7 30.6 0.00 0.00 0.00 26 1012.4
20260507003006 10 296 17.7 41.8 0.00 0.00 0.00 26 1012.6
20260507002505 10 258 24.1 41.8 0.00 0.00 0.00 27 1012.7
20260507002004 10 271 25.7 43.5 0.00 0.00 0.00 26 1012.7
20260507001512 10 277 29.0 43.5 0.00 0.00 0.00 26 1012.8
20260507001003 10 234 17.7 32.2 0.00 0.00 0.00 26 1012.8
20260507000505 10 302 16.1 35.4 0.00 0.00 0.00 27 1012.8
20260507000002 10 265 17.7 32.2 0.00 0.00 0.00 27 1012.9
20260506235503 10 276 20.9 45.1 0.00 0.00 0.00 27 1012.9
20260506235003 10 277 27.4 46.7 0.00 0.00 0.00 27 1012.9
20260506234502 10 264 25.7 40.2 0.00 0.00 0.00 27 1012.9
20260506234002 11 294 20.9 37.0 0.00 0.00 0.00 28 1012.9
20260506233604 11 304 24.1 37.0 0.00 0.00 0.00 27 1013.0
20260506233102 10 275 16.1 38.6 0.00 0.00 0.00 28 1013.0
20260506232601 10 269 22.5 38.6 0.00 0.00 0.00 27 1013.0
20260506232059 10 267 27.4 40.2 0.00 0.00 0.00 27 1012.9
20260506231607 10 299 14.5 38.6 0.00 0.00 0.00 27 1012.9
20260506231059 10 269 25.7 38.6 0.00 0.00 0.00 28 1013.0
20260506230557 10 284 20.9 37.0 0.00 0.00 0.00 29 1013.0
20260506230113 10 258 17.7 38.6 0.00 0.00 0.00 28 1013.1
20260506225558 10 299 24.1 38.6 0.00 0.00 0.00 29 1013.1
20260506225056 10 252 19.3 32.2 0.00 0.00 0.00 30 1013.1
20260506224555 10 249 17.7 38.6 0.00 0.00 0.00 30 1013.2
20260506224055 10 256 24.1 38.6 0.00 0.00 0.00 31 1013.4
20260506223558 10 288 6.4 27.4 0.00 0.00 0.00 32 1013.3
20260506223055 10 248 12.9 37.0 0.00 0.00 0.00 32 1013.4
20260506222555 10 288 22.5 37.0 0.00 0.00 0.00 30 1013.6
20260506222054 10 259 20.9 32.2 0.00 0.00 0.00 30 1013.6
20260506221604 9 259 17.7 29.0 0.00 0.00 0.00 31 1013.7
20260506221050 8 284 11.3 33.8 0.00 0.00 0.00 32 1013.8
20260506220549 8 286 14.5 33.8 0.00 0.00 0.00 33 1013.9
20260506220049 9 268 22.5 40.2 0.00 0.00 0.00 32 1014.0
20260506215548 9 286 19.3 38.6 0.00 0.00 0.00 33 1014.0
20260506215049 9 281 24.1 32.2 0.00 0.00 0.00 30 1014.1
20260506214553 9 248 19.3 43.5 0.00 0.00 0.00 33 1014.2
20260506214046 9 284 19.3 43.5 0.00 0.00 0.00 33 1014.2
20260506213546 9 257 17.7 37.0 0.00 0.00 0.00 32 1014.3
20260506213047 9 279 17.7 37.0 0.00 0.00 0.00 31 1014.3
20260506212546 9 254 22.5 35.4 0.00 0.00 0.00 34 1014.5
20260506212045 8 267 11.3 40.2 0.00 0.00 0.00 33 1014.5
20260506211544 9 271 20.9 40.2 0.00 0.00 0.00 32 1014.5
20260506211047 9 260 11.3 32.2 0.00 0.00 0.00 34 1014.5
20260506210544 9 243 16.1 38.6 0.00 0.00 0.00 30 1014.7
20260506210053 10 275 27.4 38.6 0.00 0.00 0.00 31 1014.7
20260506205546 9 277 14.5 33.8 0.00 0.00 0.00 33 1014.6
20260506205041 8 254 25.7 33.8 0.00 0.00 0.00 32 1014.8
20260506204545 8 246 17.7 37.0 0.00 0.00 0.00 34 1014.8
20260506204039 8 270 20.9 37.0 0.00 0.00 0.00 33 1015.0
20260506203540 8 249 12.9 37.0 0.00 0.00 0.00 33 1015.0
20260506203041 8 277 22.5 37.0 0.00 0.00 0.00 31 1015.0
20260506202541 8 284 14.5 40.2 0.00 0.00 0.00 30 1015.1
20260506202038 9 294 20.9 40.2 0.00 0.00 0.00 32 1015.0
20260506201537 9 242 9.7 32.2 0.00 0.00 0.00 31 1015.0
20260506201035 8 271 17.7 32.2 0.00 0.00 0.00 32 1015.1
20260506200537 8 295 19.3 29.0 0.00 0.00 0.00 31 1015.2
20260506200034 8 243 11.3 29.0 0.00 0.00 0.00 32 1015.2
20260506195532 8 319 14.5 30.6 0.00 0.00 0.00 33 1015.3
20260506195032 7 294 11.3 30.6 0.00 0.00 0.00 33 1015.4
20260506194531 8 265 20.9 30.6 0.00 0.00 0.00 31 1015.4
20260506194031 8 274 22.5 33.8 0.00 0.00 0.00 31 1015.5
20260506193532 8 248 22.5 33.8 0.00 0.00 0.00 32 1015.5
20260506193036 8 209 11.3 20.9 0.00 0.00 0.00 34 1015.5
20260506192532 8 340 8.0 24.1 0.00 0.00 0.00 34 1015.5